Flag Weather past 2 weeks in Esfahãn, Iran

Now
32 °F

Ice fog.


Feels Like: 27 °F
Forecast: 28 / 53 °F
Wind: 5 mph from West

Location: Esfahan

Current Time: Nov 28, 2014 at 3:17:58 AM

Latest Report: Nov 28, 2014 at 2:30 AM


Visibility: 2 mi

Pressure: 30.09 "Hg

Humidity: 93%

Dew point: 30 °F

Location of EsfahãnLocation

Historic Weather in Esfahãn — Graph

°F

Esfahãn temperature yesterday

Maximum temperature yesterday: 54 °F (at 3:00 PM)
Minimum temperature yesterday: 27 °F (at 5:30 AM)
Average temperature yesterday: 40 °F

Past Weeks' High & Low Weather Summary

 TemperatureHumidityPressure
High66 °F (Nov 22, 2:00 PM)100% (Nov 25, 8:30 AM)30.36 "Hg (Nov 25, 8:30 AM)
Low21 °F (Nov 13, 6:30 AM)12% (Nov 16, 4:30 PM)29.89 "Hg (Nov 23, 3:00 PM)
Average45 °F52%30.15 "Hg
* Reported Nov 13 1:30 AM — Nov 28 2:00 AM, Esfahãn, Weather by CustomWeather, © 2014

Note: Actual official high and low records may vary slightly from our data, if they occured in-between our weather recording intervals... More about our weather records

Advertising

Esfahãn weather history for previous 24 hours

 ConditionsComfort  
Time TempWeatherWind HumidityBarometerVisibility
2:00 AM
Nov 28
32 °FIce fog.5 mph93%30.09 "Hg1 mi
1:30 AM32 °FIce fog.5 mph93%30.09 "Hg1 mi
1:00 AM32 °FIce fog.5 mph93%30.09 "Hg1 mi
12:30 AM34 °FFog.7 mph93%30.09 "Hg1 mi
12:00 AM34 °FFog.5 mph93%30.09 "Hg1 mi
11:30 PM
Nov 27
36 °FFog.7 mph87%30.09 "Hg3 mi
11:00 PM36 °FClear.7 mph81%30.09 "Hg10 mi
10:30 PM37 °FClear.No wind70%30.09 "Hg10 mi
10:00 PM41 °FClear.No wind57%30.09 "Hg10 mi
9:30 PM41 °FClear.5 mph57%30.09 "Hg10 mi
9:00 PM43 °FClear.No wind53%30.09 "Hg5 mi
8:30 PM39 °FClear.9 mph70%30.09 "Hg5 mi
8:00 PM41 °FClear.14 mph66%30.09 "Hg4 mi
7:30 PM43 °FClear.5 mph66%30.09 "Hg4 mi
7:00 PM45 °FClear.5 mph71%30.09 "Hg4 mi
6:30 PM46 °FClear.7 mph62%30.07 "Hg3 mi
6:00 PM45 °FClear.No wind71%30.07 "Hg4 mi
5:30 PM46 °FClear.No wind71%30.07 "Hg4 mi
5:00 PM48 °FSunny.7 mph66%30.07 "Hg3 mi
4:30 PM52 °FSunny.7 mph58%30.04 "Hg3 mi
4:00 PM54 °FSunny.5 mph44%30.04 "Hg3 mi
3:30 PM54 °FSunny.5 mph47%30.04 "Hg3 mi
3:00 PM54 °FSunny.5 mph44%30.04 "Hg3 mi
2:30 PM52 °FSunny.No wind50%30.04 "Hg3 mi
2:00 PM52 °FSunny.7 mph50%30.04 "Hg3 mi
1:30 PM52 °FSunny.No wind50%30.07 "Hg3 mi
1:00 PM50 °FSunny.2 mph54%30.07 "Hg3 mi
12:30 PM48 °FSunny.5 mph62%30.09 "Hg3 mi
12:00 PM50 °FSunny.5 mph58%30.09 "Hg2 mi
11:30 AM46 °FSunny.5 mph66%30.09 "Hg2 mi
11:00 AM45 °FSunny.No wind76%30.09 "Hg1 mi
10:30 AM43 °FFog.5 mph87%30.12 "Hg1 mi
10:00 AM41 °FFog.7 mph93%30.12 "Hg1 mi
9:30 AM37 °FFog.5 mph93%30.12 "Hg1 mi
9:00 AM36 °FFog.5 mph93%30.12 "Hg1 mi
8:30 AM34 °FFog.No wind93%30.12 "Hg1 mi
8:00 AM32 °FIce fog.No wind93%30.09 "Hg1 mi
7:30 AM28 °FFog.No wind100%30.09 "Hg1 mi
7:00 AM27 °FFog.No wind100%30.09 "Hg0 mi
6:30 AM28 °FFog.No wind100%30.07 "Hg1 mi
6:00 AM27 °FFog.No wind100%30.07 "Hg0 mi
5:30 AM27 °FFog.No wind100%30.07 "Hg0 mi
5:00 AM30 °FFog.No wind93%30.07 "Hg1 mi
4:30 AM30 °FIce fog.No wind93%30.07 "Hg1 mi
4:00 AM30 °FIce fog.No wind93%30.07 "Hg1 mi
3:00 AM32 °FIce fog.No wind93%30.07 "Hg1 mi
Weather by CustomWeather, © 2014

See weather overviewHow to use our weather pages